EW3156 Weather Reports


time (UTC)temp
C
wind
direction
speed
KPH
gust
KPH
rain 1hr
cm
rain 24hr
cm
rain mn
cm
humidity
%
barometer
mb
20260906100047 25 83 1.6 4.8 0.00 0.00 0.00 89 1011.7
20260906094547 26 59 1.6 6.4 0.00 0.00 0.00 87 1011.3
20260906093046 26 79 0.0 1.6 0.00 0.00 0.00 86 1011.0
20260906091545 26 76 3.2 6.4 0.00 0.00 0.00 86 1010.8
20260906090043 26 198 0.0 8.0 0.00 0.00 0.00 89 1010.8
20260906084542 26 116 0.0 3.2 0.00 0.00 0.00 93 1010.8
20260906083048 26 116 0.0 0.0 0.00 0.00 0.00 93 1011.0
20260906081547 26 116 0.0 3.2 0.00 0.00 0.00 93 1011.1
20260906080041 26 116 0.0 1.6 0.00 0.00 0.00 93 1011.5
20260906074540 26 116 1.6 4.8 0.00 0.00 0.00 93 1011.4
20260906073139 26 116 0.0 1.6 0.00 0.00 0.00 93 1011.1
20260906071551 25 116 0.0 1.6 0.00 0.00 0.00 93 1010.9
20260906070037 25 116 0.0 0.0 0.00 0.00 0.00 93 1011.0
20260906064537 25 116 0.0 0.0 0.00 0.00 0.00 93 1011.2
20260906063033 25 116 0.0 0.0 0.00 0.00 0.00 92 1011.4
20260906061532 25 116 0.0 1.6 0.00 0.00 0.00 92 1011.5
20260906060030 25 116 0.0 1.6 0.00 0.00 0.00 92 1011.7
20260906054529 25 116 0.0 1.6 0.00 0.00 0.00 92 1011.6
20260906053035 25 116 0.0 0.0 0.00 0.00 0.00 91 1011.8
20260906051532 26 116 0.0 1.6 0.00 0.00 0.00 90 1011.7
20260906050048 26 116 0.0 1.6 0.00 0.00 0.00 89 1012.0
20260906044521 26 116 0.0 0.0 0.00 0.00 0.00 88 1012.0
20260906043021 26 116 1.6 4.8 0.00 0.00 0.00 88 1012.0
20260906041520 26 206 0.0 1.6 0.00 0.00 0.00 87 1011.8
20260906040020 27 206 0.0 1.6 0.00 0.00 0.00 86 1011.8
20260906034527 27 206 0.0 1.6 0.00 0.00 0.00 85 1011.7
20260906033024 27 206 0.0 1.6 0.00 0.00 0.00 85 1011.9
20260906031524 27 206 0.0 1.6 0.00 0.00 0.00 85 1011.7
20260906030019 27 206 0.0 0.0 0.00 0.00 0.00 85 1011.5
20260906024517 27 206 0.0 1.6 0.00 0.00 0.00 85 1011.6
20260906023024 27 206 0.0 1.6 0.00 0.00 0.00 84 1011.5
20260906021517 27 206 0.0 1.6 0.00 0.00 0.00 84 1011.4
20260906020015 28 206 0.0 0.0 0.00 0.00 0.00 83 1011.4
20260906014515 28 290 0.0 1.6 0.00 0.00 0.00 82 1010.9
20260906013015 28 215 0.0 3.2 0.00 0.00 0.00 82 1010.6
20260906011514 28 218 0.0 3.2 0.00 0.00 0.00 81 1010.4
20260906010014 29 217 0.0 3.2 0.00 0.00 0.00 80 1010.2
20260906004512 29 182 0.0 4.8 0.00 0.00 0.00 79 1010.1
20260906003013 30 165 0.0 4.8 0.00 0.00 0.00 78 1010.1
20260906001512 30 90 1.6 4.8 0.00 0.00 0.00 77 1010.1
20260906000012 30 228 0.0 4.8 0.00 0.00 0.00 76 1010.2
20260905234510 31 182 0.0 9.7 0.00 0.00 0.00 76 1010.2
20260905233021 31 136 1.6 4.8 0.00 0.00 0.00 75 1010.1
20260905231510 31 355 0.0 9.7 0.00 0.00 0.00 74 1010.0
20260905230008 32 269 1.6 12.9 0.00 0.00 0.00 71 1010.0
20260905224509 33 176 1.6 6.4 0.00 0.00 0.00 68 1010.0
20260905223007 33 225 0.0 6.4 0.00 0.00 0.00 66 1009.7
20260905221509 34 219 3.2 8.0 0.00 0.00 0.00 63 1009.6
20260905220006 35 117 0.0 3.2 0.00 0.00 0.00 56 1009.5
20260905214505 36 117 0.0 3.2 0.00 0.00 0.00 51 1009.4
20260905213003 36 117 1.6 4.8 0.00 0.00 0.00 51 1009.5
20260905211502 36 186 0.0 4.8 0.00 0.00 0.00 52 1009.7
20260905210100 36 301 0.0 4.8 0.00 0.00 0.00 54 1009.7
20260905204556 36 159 1.6 4.8 0.00 0.00 0.00 55 1010.0
20260905203054 37 74 3.2 9.7 0.00 0.00 0.00 49 1010.0
20260905201550 37 86 1.6 11.3 0.00 0.00 0.00 49 1010.1
20260905200053 37 168 3.2 9.7 0.00 0.00 0.00 48 1010.2
20260905194544 36 89 0.0 6.4 0.00 0.00 0.00 50 1010.2
20260905193042 36 269 1.6 6.4 0.00 0.00 0.00 50 1010.4
20260905191539 36 76 1.6 8.0 0.00 0.00 0.00 48 1010.8
20260905190037 36 205 1.6 6.4 0.00 0.00 0.00 54 1010.9
20260905184538 35 242 0.0 6.4 0.00 0.00 0.00 55 1011.3
20260905183036 36 148 0.0 4.8 0.00 0.00 0.00 54 1011.5
20260905181530 36 5 0.0 11.3 0.00 0.00 0.00 51 1011.8
20260905180025 36 68 1.6 6.4 0.00 0.00 0.00 53 1012.0
20260905174532 36 79 3.2 9.7 0.00 0.00 0.00 54 1012.2
20260905173024 36 113 3.2 9.7 0.00 0.00 0.00 53 1012.4
20260905171517 36 79 3.2 11.3 0.00 0.00 0.00 53 1012.7
20260905170013 35 87 1.6 9.7 0.00 0.00 0.00 56 1012.8
20260905164511 35 57 0.0 8.0 0.00 0.00 0.00 56 1013.1
20260905163008 35 105 3.2 8.0 0.00 0.00 0.00 58 1013.2
20260905161504 33 330 4.8 8.0 0.00 0.00 0.00 60 1013.3
20260905160100 33 185 0.0 6.4 0.00 0.00 0.00 61 1013.2
20260905154557 33 333 1.6 8.0 0.00 0.00 0.00 63 1013.2
20260905153054 33 226 0.0 4.8 0.00 0.00 0.00 65 1013.2
20260905151548 32 79 0.0 3.2 0.00 0.00 0.00 68 1013.2
20260905150043 32 254 1.6 6.4 0.00 0.00 0.00 69 1013.3
20260905144547 31 71 0.0 3.2 0.00 0.00 0.00 74 1013.3
20260905143037 30 71 0.0 4.8 0.00 0.00 0.00 77 1013.5
20260905141553 30 70 0.0 4.8 0.00 0.00 0.00 79 1013.5
20260905140026 29 70 0.0 3.2 0.00 0.00 0.00 82 1013.6
20260905134521 28 70 0.0 1.6 0.00 0.00 0.00 85 1013.7
20260905133019 27 70 1.6 4.8 0.00 0.00 0.00 87 1013.6
20260905131513 26 70 0.0 4.8 0.00 0.00 0.00 91 1013.7
20260905130008 24 70 0.0 0.0 0.00 0.00 0.00 96 1013.9
20260905124504 23 70 0.0 0.0 0.00 0.00 0.00 97 1013.9
20260905123003 23 70 0.0 0.0 0.00 0.00 0.00 98 1014.0
20260905121601 23 70 0.0 1.6 0.00 0.00 0.00 98 1013.7
20260905120058 22 70 0.0 0.0 0.00 0.00 0.00 98 1013.6
20260905114626 22 70 0.0 0.0 0.00 0.00 0.00 97 1013.6
20260905113056 22 70 0.0 1.6 0.00 0.00 0.00 97 1013.5
20260905111554 23 70 0.0 0.0 0.00 0.00 0.00 97 1013.3
20260905110050 23 70 0.0 0.0 0.00 0.00 0.00 97 1013.3
20260905104552 23 70 0.0 0.0 0.00 0.00 0.00 96 1013.3
20260905103149 23 70 0.0 0.0 0.00 0.00 0.00 96 1013.2
20260905101548 23 70 0.0 1.6 0.00 0.00 0.00 96 1013.2